Content
SEND FEEDBACK

Daily
Averages
Monthly
Summary
United States of America

WILMINGTON, NORTH CAROLINA


Home > North America > United States > North Carolina
Elevation: 72 feet     Latitude: 34 16N     Longitude: 077 54W

WEATHER
 
SELECT A DAY
Number of Records: 208,677;   Date Range: 1/1/95 - 7/22/14
 
SHARE

PRINT THIS DATA

[ ← Previous Day ]
WEATHER ALMANAC - FEBRUARY 24, 2013
[ Next Day → ]
[ °C ]   °F
Weather ElementAverageHighLow
Temperature50.9 °F64.9 °F (2:53 pm)43 °F (11:53 pm)
Dewpoint45.3 °F48.2 °F (11:43 am)41 °F (11:53 pm)
Humidity83.4 %100 % (2:25 am)45 % (2:53 pm)
Barometer29.90 in30.01 in (10:53 pm)29.79 in (1:53 am)
Wind Speed7.6 mph13.8 mph (5:53 am)
Weather ElementAverage
Visibility7.7 mi
Wind DirectionWSW (256.2 °)

Weather ElementTotal
Precipitation---
Heating Degree Days11.1 (Base 65)
Growing Degree Days4 (Base 50)
Averaged from 34 records on February 24, 2013
WEATHER CONDITIONS BREAKOUT
WIND DIRECTION BREAKOUT
WEATHER BY HOUR - FEBRUARY 24, 2013
[ °C ]   °F
Local TimeTemperatureDewpointHumidityBarometerVisibilityWind DirectionWind SpeedGust SpeedPrecipitationEventsConditions
1:53 AM48.0 °F46.0 °F93 %29.79 in4.0 miNNW (330°)8.1 mphOvercast
2:25 AM46.4 °F46.4 °F100 %29.81 in2.5 miNNW (330°)12.7 mphOvercast
2:38 AM46.4 °F46.4 °F100 %29.80 in4.0 miNNW (330°)5.8 mphOvercast
2:53 AM46.9 °F46.0 °F97 %29.80 in6.0 miNW (310°)4.6 mphOvercast
3:53 AM46.9 °F45.0 °F93 %29.80 in5.0 miWest (280°)8.1 mphOvercast
4:32 AM46.4 °F46.4 °F100 %29.81 in2.0 miWest (280°)8.1 mphOvercast
4:53 AM46.9 °F46.0 °F97 %29.82 in3.0 miWNW (290°)9.2 mphOvercast
5:08 AM46.4 °F46.4 °F100 %29.82 in2.0 miWest (280°)9.2 mphOvercast
5:30 AM46.4 °F46.4 °F100 %29.84 in4.0 miWNW (290°)8.1 mphOvercast
5:53 AM46.9 °F45.0 °F93 %29.85 in7.0 miWNW (300°)13.8 mph0.00 inRainLight Rain
6:03 AM46.4 °F44.6 °F93 %29.84 in10.0 miWNW (300°)9.2 mphOvercast
6:38 AM46.4 °F44.6 °F93 %29.85 in8.0 miNW (320°)6.9 mphOvercast
6:53 AM46.9 °F45.0 °F93 %29.85 in7.0 miNW (310°)5.8 mphOvercast
7:53 AM48.0 °F46.0 °F93 %29.89 in9.0 miNW (310°)6.9 mphOvercast
8:53 AM48.0 °F46.0 °F93 %29.92 in2.0 miWNW (300°)9.2 mphOvercast
9:51 AM48.2 °F46.4 °F93 %29.94 in9.0 miWNW (300°)12.7 mphOvercast
9:53 AM48.9 °F46.9 °F93 %29.94 in9.0 miNW (320°)11.5 mphOvercast
10:14 AM50.0 °F46.4 °F87 %29.94 in10.0 miWNW (300°)11.5 mphOvercast
10:53 AM52.0 °F46.9 °F83 %29.94 in10.0 miNW (320°)11.5 mphOvercast
11:06 AM53.6 °F46.4 °F77 %29.95 in10.0 miNW (320°)11.5 mphOvercast
11:43 AM55.4 °F48.2 °F77 %29.95 in10.0 miWNW (300°)12.7 mphScattered Clouds
11:53 AM57.0 °F48.0 °F72 %29.94 in10.0 miNNW (330°)11.5 mphScattered Clouds
12:53 PM60.1 °F48.0 °F64 %29.92 in10.0 miWNW (300°)6.9 mphClear
1:53 PM63.0 °F46.9 °F56 %29.91 in10.0 miWNW (290°)9.2 mphClear
2:53 PM64.9 °F43.0 °F45 %29.90 in10.0 miWNW (290°)8.1 mphClear
3:53 PM64.0 °F42.1 °F45 %29.91 in10.0 miWNW (290°)8.1 mphClear
4:53 PM63.0 °F42.1 °F46 %29.91 in10.0 miWest (280°)8.1 mphClear
5:53 PM60.1 °F43.0 °F53 %29.92 in10.0 miWest (280°)5.8 mphClear
6:53 PM53.1 °F45.0 °F74 %29.95 in10.0 miCalmClear
7:53 PM51.1 °F45.0 °F80 %29.98 in10.0 miSW (230°)3.5 mphClear
8:53 PM48.0 °F44.1 °F86 %29.98 in10.0 miCalmClear
9:53 PM46.0 °F43.0 °F89 %29.99 in10.0 miCalmClear
10:53 PM46.0 °F42.1 °F86 %30.01 in10.0 miCalmClear
11:53 PM43.0 °F41.0 °F93 %30.01 in8.0 miCalmClear
Hourly data recorded from KILM, located miles away from Wilmington, North Carolina







STORIES FROM OUR PARTNERS